FW8740 Weather Reports


Display with metric or nautical units.
time (UTC)temp
F
wind
direction
speed
MPH
gust
MPH
rain 1hr
in
rain 24hr
in
rain mn
in
humidity
%
barometer
mb
20260502152109 53 33 2.0 5.0 0.00 0.05 0.05 85 1014.9
20260502151606 52 105 3.0 3.0 0.00 0.05 0.05 86 1014.9
20260502151104 53 334 4.0 5.0 0.00 0.05 0.05 87 1014.9
20260502150601 53 103 0.0 5.0 0.00 0.05 0.05 87 1014.8
20260502130446 49 90 0.0 1.0 0.00 0.05 0.05 93 1015.3
20260502123428 48 102 0.0 1.0 0.00 0.05 0.05 93 1015.1
20260502122926 48 101 0.0 1.0 0.00 0.05 0.05 93 1015.4
20260502122422 48 120 0.0 0.0 0.00 0.05 0.05 93 1015.3
20260502121920 49 101 0.0 0.0 0.00 0.05 0.05 93 1015.0
20260502121417 48 99 0.0 0.0 0.00 0.05 0.05 93 1014.8
20260502120914 48 104 0.0 0.0 0.00 0.05 0.05 93 1014.8
20260502120410 48 102 0.0 0.0 0.00 0.05 0.05 93 1015.0
20260502115908 48 106 0.0 0.0 0.00 0.05 0.05 93 1014.9
20260502115405 48 117 0.0 0.0 0.00 0.05 0.05 93 1015.1
20260502114901 48 112 0.0 0.0 0.00 0.05 0.05 93 1015.2
20260502114358 47 111 0.0 0.0 0.00 0.05 0.05 93 1015.0
20260502113855 47 107 0.0 0.0 0.00 0.05 0.05 93 1015.1
20260502113352 48 122 0.0 0.0 0.00 0.05 0.05 93 1015.0
20260502112851 47 123 0.0 1.0 0.00 0.05 0.05 93 1015.2
20260502112348 47 104 0.0 0.0 0.00 0.05 0.05 93 1015.0
20260502111845 47 100 0.0 0.0 0.00 0.05 0.05 93 1014.8
20260502111342 47 98 0.0 0.0 0.00 0.05 0.05 93 1015.0
20260502110840 47 101 0.0 0.0 0.00 0.05 0.05 93 1014.7
20260502110338 47 104 0.0 0.0 0.00 0.05 0.05 93 1014.9
20260502105835 46 103 0.0 0.0 0.00 0.05 0.05 93 1014.5
20260502105332 46 104 0.0 0.0 0.00 0.05 0.05 93 1014.5
20260502104830 46 104 0.0 0.0 0.00 0.05 0.05 93 1014.6
20260502104327 46 101 0.0 0.0 0.00 0.05 0.05 92 1014.7
20260502103824 46 103 0.0 0.0 0.00 0.05 0.05 92 1014.5
20260502103321 46 105 0.0 0.0 0.00 0.05 0.05 92 1014.4
20260502102818 47 108 0.0 0.0 0.00 0.05 0.05 92 1014.7
20260502102314 47 113 0.0 0.0 0.00 0.05 0.05 92 1014.5
20260502101813 47 116 0.0 2.0 0.00 0.05 0.05 92 1014.3
20260502101310 47 130 0.0 1.0 0.05 0.05 0.05 92 1014.5
20260502100809 47 123 1.0 1.0 0.12 0.05 0.05 92 1014.5
20260502100308 47 111 0.0 0.0 0.14 0.04 0.04 92 1014.7
20260502091241 47 114 0.0 1.0 0.00 0.01 0.01 91 1014.2
20260502090738 47 114 0.0 0.0 0.00 0.01 0.01 91 1014.4
20260502090235 47 107 0.0 1.0 0.00 0.01 0.01 91 1014.7
20260502071136 47 113 0.0 0.0 0.00 0.00 0.00 89 1014.3
20260502070634 46 123 0.0 0.0 0.00 0.00 0.00 89 1014.4
20260502070132 47 119 0.0 0.0 0.00 0.00 0.00 89 1014.4
20260502065630 47 121 0.0 0.0 0.00 0.00 0.00 89 1014.5
20260502065127 46 108 0.0 0.0 0.00 0.00 0.00 89 1014.4
20260502064626 46 105 0.0 0.0 0.00 0.00 0.00 89 1014.2
20260502064122 46 105 0.0 0.0 0.00 0.00 0.00 89 1014.4
20260502063620 46 106 0.0 0.0 0.00 0.00 0.00 89 1014.5
20260502063117 46 105 0.0 0.0 0.00 0.00 0.00 89 1014.4
20260502062614 46 104 0.0 0.0 0.00 0.00 0.00 88 1014.5
20260502062112 46 103 0.0 0.0 0.00 0.00 0.00 88 1014.4
20260502061610 46 105 0.0 0.0 0.00 0.00 0.00 88 1014.5
20260502061108 47 106 0.0 0.0 0.00 0.00 0.00 88 1014.5
20260502060607 47 107 0.0 0.0 0.00 0.00 0.00 88 1014.6
20260502060105 47 111 0.0 0.0 0.00 0.00 0.00 88 1014.5
20260502055602 47 110 0.0 0.0 0.00 0.00 0.00 88 1014.7
20260502055100 47 109 0.0 0.0 0.00 0.00 0.00 88 1014.7
20260502054559 47 107 0.0 0.0 0.00 0.00 0.00 88 1014.6
20260502054055 47 106 0.0 0.0 0.00 0.00 0.00 88 1014.8
20260502053552 47 109 0.0 0.0 0.00 0.00 0.00 88 1014.9
20260502053050 47 118 0.0 0.0 0.00 0.00 0.00 88 1014.7
20260502052549 47 125 1.0 1.0 0.00 0.00 0.00 88 1014.8
20260502052046 47 110 0.0 0.0 0.00 0.00 0.00 87 1014.6
20260502051544 47 109 0.0 0.0 0.00 0.00 0.00 87 1014.7
20260502051042 47 123 0.0 0.0 0.00 0.00 0.00 87 1014.6
20260502050537 48 123 0.0 1.0 0.00 0.00 0.00 87 1014.6
20260502050035 48 115 0.0 0.0 0.00 0.00 0.00 87 1014.8
20260502045531 48 114 0.0 0.0 0.00 0.00 0.00 87 1014.7
20260502045029 48 113 0.0 0.0 0.00 0.00 0.00 87 1014.8
20260502044525 48 111 0.0 0.0 0.00 0.00 0.00 87 1014.7
20260502044021 48 120 0.0 1.0 0.00 0.00 0.00 87 1014.7
20260502043519 48 127 1.0 1.0 0.00 0.00 0.00 87 1014.5
20260502043015 48 121 0.0 1.0 0.00 0.00 0.00 86 1015.0
20260502042510 49 122 0.0 0.0 0.00 0.00 0.00 87 1014.9
20260502042008 48 163 1.0 2.0 0.00 0.00 0.00 87 1014.9
20260502041506 48 132 0.0 1.0 0.00 0.00 0.00 86 1014.7
20260502041003 48 153 1.0 2.0 0.00 0.00 0.00 86 1014.9
20260502040459 49 138 1.0 1.0 0.00 0.00 0.00 86 1014.9
20260502035955 49 188 2.0 2.0 0.00 0.00 0.00 86 1014.9
20260502035451 49 161 1.0 2.0 0.00 0.00 0.00 86 1014.8
20260502034949 49 137 0.0 1.0 0.00 0.00 0.00 86 1014.8
20260502034448 48 149 1.0 2.0 0.00 0.00 0.00 86 1014.8
20260502033946 48 146 1.0 2.0 0.00 0.00 0.00 86 1014.6
20260502033443 48 138 1.0 1.0 0.00 0.00 0.00 86 1014.7
20260502032939 48 154 1.0 2.0 0.00 0.00 0.00 86 1014.7
20260502032436 48 150 1.0 2.0 0.00 0.00 0.00 86 1014.9
20260502031933 47 192 1.0 2.0 0.00 0.00 0.00 86 1015.0
20260502031432 47 150 1.0 2.0 0.00 0.00 0.00 86 1015.1
20260502030930 47 156 2.0 2.0 0.00 0.00 0.00 86 1015.1
20260502030428 47 139 1.0 2.0 0.00 0.00 0.00 86 1015.0
20260502025925 46 148 1.0 1.0 0.00 0.00 0.00 85 1015.1
20260502025422 46 128 0.0 2.0 0.00 0.00 0.00 85 1015.2
20260502024920 46 174 1.0 2.0 0.00 0.00 0.00 85 1015.1
20260502024418 46 184 2.0 2.0 0.00 0.00 0.00 84 1014.9
20260502023915 47 138 1.0 2.0 0.00 0.00 0.00 84 1015.2
20260502023413 47 117 0.0 0.0 0.00 0.00 0.00 84 1015.1
20260502022910 47 118 0.0 0.0 0.00 0.00 0.00 83 1015.1
20260502022406 47 113 0.0 0.0 0.00 0.00 0.00 83 1015.2
20260502021903 47 125 0.0 1.0 0.00 0.00 0.00 82 1015.4
20260502021401 48 113 0.0 0.0 0.00 0.00 0.00 82 1015.0
20260502020858 48 118 0.0 0.0 0.00 0.00 0.00 82 1015.1
20260502020356 48 131 1.0 1.0 0.00 0.00 0.00 82 1015.1
20260502015852 48 130 0.0 2.0 0.00 0.00 0.00 82 1015.1
20260502015349 48 147 1.0 2.0 0.00 0.00 0.00 81 1015.3
20260502014847 48 141 1.0 2.0 0.00 0.00 0.00 80 1015.2
20260502014344 49 140 1.0 1.0 0.00 0.00 0.00 79 1015.2
20260502013839 49 125 1.0 1.0 0.00 0.00 0.00 79 1015.1
20260502013335 50 141 1.0 1.0 0.00 0.00 0.00 78 1015.0
20260502012832 50 106 0.0 0.0 0.00 0.00 0.00 77 1014.9
20260502012330 50 119 0.0 0.0 0.00 0.00 0.00 77 1015.1
20260502011827 51 131 0.0 1.0 0.00 0.00 0.00 76 1014.8
20260502011323 51 121 1.0 1.0 0.00 0.00 0.00 75 1014.9
20260502010821 51 100 1.0 1.0 0.00 0.00 0.00 75 1014.9
20260502010317 51 117 0.0 0.0 0.00 0.00 0.00 74 1014.9
20260502005814 52 124 1.0 1.0 0.00 0.00 0.00 74 1015.2
20260502005312 52 83 0.0 1.0 0.00 0.00 0.00 74 1014.8
20260502004809 52 88 1.0 2.0 0.00 0.00 0.00 73 1014.9
20260502004305 53 56 1.0 3.0 0.00 0.00 0.00 73 1014.9
20260502003803 53 101 0.0 1.0 0.00 0.00 0.00 73 1014.6
20260502003259 53 103 0.0 1.0 0.00 0.00 0.00 73 1014.4
20260502002755 53 95 0.0 1.0 0.00 0.00 0.00 72 1014.3
20260502002253 53 117 0.0 1.0 0.00 0.00 0.00 72 1014.3
20260502001750 53 126 1.0 2.0 0.00 0.00 0.00 72 1014.2
20260502001248 53 129 1.0 2.0 0.00 0.00 0.00 71 1014.4
20260502000745 53 120 2.0 2.0 0.00 0.00 0.00 71 1014.1
20260502000244 53 238 2.0 2.0 0.00 0.00 0.00 71 1014.1
20260501235738 53 44 2.0 2.0 0.00 0.00 0.00 71 1014.2
20260501235235 53 140 0.0 2.0 0.00 0.00 0.00 70 1014.1
20260501234731 53 191 2.0 2.0 0.00 0.00 0.00 70 1014.1
20260501234228 53 129 0.0 2.0 0.00 0.00 0.00 70 1014.2
20260501233726 53 170 2.0 9.0 0.00 0.00 0.00 69 1014.2
20260501233223 53 132 0.0 2.0 0.00 0.00 0.00 69 1013.8
20260501232718 54 154 1.0 3.0 0.00 0.00 0.00 68 1013.8
20260501232216 54 157 1.0 3.0 0.00 0.00 0.00 68 1013.7
20260501231714 54 265 3.0 5.0 0.00 0.00 0.00 68 1013.8
20260501231212 54 139 1.0 1.0 0.00 0.00 0.00 68 1013.9
20260501230710 54 187 2.0 3.0 0.00 0.00 0.00 68 1013.7
20260501230208 54 177 3.0 3.0 0.00 0.00 0.00 68 1013.6
20260501225705 54 154 1.0 3.0 0.00 0.00 0.00 68 1013.4
20260501225202 54 166 2.0 2.0 0.00 0.00 0.00 67 1013.5
20260501224658 54 240 2.0 2.0 0.00 0.00 0.00 67 1013.4
20260501224156 54 214 3.0 7.0 0.00 0.00 0.00 66 1013.7
20260501223652 55 220 2.0 5.0 0.00 0.00 0.00 65 1013.4
20260501223149 55 212 3.0 7.0 0.00 0.00 0.00 65 1013.3
20260501222644 56 229 3.0 6.0 0.00 0.00 0.00 63 1013.5
20260501222142 56 210 1.0 3.0 0.00 0.00 0.00 62 1013.4
20260501221638 56 216 2.0 6.0 0.00 0.00 0.00 61 1013.5
20260501221137 57 199 2.0 3.0 0.00 0.00 0.00 60 1013.4
20260501220634 57 221 3.0 6.0 0.00 0.00 0.00 59 1013.6
20260501220130 58 250 4.0 6.0 0.00 0.00 0.00 57 1013.4
20260501215627 59 175 3.0 7.0 0.00 0.00 0.00 56 1013.2
20260501215122 59 172 3.0 8.0 0.00 0.00 0.00 55 1013.4
20260501214618 60 231 4.0 6.0 0.00 0.00 0.00 53 1013.4
20260501214113 60 205 2.0 8.0 0.00 0.00 0.00 53 1013.2
20260501213611 59 246 5.0 5.0 0.00 0.00 0.00 53 1013.2
20260501213106 61 240 6.0 9.0 0.00 0.00 0.00 50 1012.9
20260501212603 62 262 5.0 7.0 0.00 0.00 0.00 47 1012.9
20260501212100 64 120 1.0 1.0 0.00 0.00 0.00 42 1012.6
20260501211556 66 119 0.0 2.0 0.00 0.00 0.00 40 1012.9
20260501211055 65 68 1.0 2.0 0.00 0.00 0.00 41 1012.9
20260501210550 63 104 1.0 2.0 0.00 0.00 0.00 42 1012.7
20260501210048 64 357 2.0 2.0 0.00 0.00 0.00 42 1012.9
20260501205544 64 248 3.0 3.0 0.00 0.00 0.00 39 1012.8
20260501205042 64 178 1.0 2.0 0.00 0.00 0.00 40 1012.9
20260501204538 64 38 1.0 2.0 0.00 0.00 0.00 39 1012.9
20260501204034 65 64 5.0 6.0 0.00 0.00 0.00 38 1012.7
20260501203531 64 106 0.0 2.0 0.00 0.00 0.00 39 1012.8
20260501203028 65 93 1.0 2.0 0.00 0.00 0.00 38 1013.0
20260501202525 65 43 1.0 2.0 0.00 0.00 0.00 39 1012.9
20260501202022 65 103 1.0 2.0 0.00 0.00 0.00 39 1012.9
20260501201519 63 50 1.0 3.0 0.00 0.00 0.00 40 1013.0
20260501201015 65 329 3.0 3.0 0.00 0.00 0.00 39 1012.9
20260501200513 65 154 1.0 3.0 0.00 0.00 0.00 39 1013.0
20260501200010 64 60 1.0 5.0 0.00 0.00 0.00 39 1012.8
20260501195507 64 67 0.0 1.0 0.00 0.00 0.00 39 1013.0
20260501195002 64 93 1.0 5.0 0.00 0.00 0.00 40 1013.3
20260501194458 64 30 2.0 2.0 0.00 0.00 0.00 39 1013.3
20260501193954 65 39 2.0 2.0 0.00 0.00 0.00 39 1013.1
20260501193452 63 128 2.0 6.0 0.00 0.00 0.00 40 1013.3
20260501192950 63 16 3.0 3.0 0.00 0.00 0.00 39 1013.1
20260501192447 63 90 1.0 3.0 0.00 0.00 0.00 40 1013.5
20260501191944 64 262 5.0 7.0 0.00 0.00 0.00 38 1013.2
20260501191441 62 92 1.0 2.0 0.00 0.00 0.00 40 1013.7
20260501190938 63 358 2.0 5.0 0.00 0.00 0.00 40 1013.6
20260501190434 63 29 2.0 6.0 0.00 0.00 0.00 39 1013.7
20260501185929 62 334 4.0 6.0 0.00 0.00 0.00 40 1013.8
20260501185426 62 6 1.0 2.0 0.00 0.00 0.00 39 1013.9
20260501184921 63 76 1.0 3.0 0.00 0.00 0.00 41 1014.0
20260501184418 61 80 1.0 6.0 0.00 0.00 0.00 40 1014.2
20260501183913 61 52 3.0 3.0 0.00 0.00 0.00 41 1014.1
20260501183410 61 315 3.0 8.0 0.00 0.00 0.00 41 1014.0
20260501182907 61 101 1.0 3.0 0.00 0.00 0.00 42 1014.2
20260501182404 61 28 1.0 8.0 0.00 0.00 0.00 42 1014.1
20260501181900 61 68 1.0 2.0 0.00 0.00 0.00 43 1014.1
20260501181357 61 48 1.0 5.0 0.00 0.00 0.00 44 1014.1
20260501180855 59 37 1.0 7.0 0.00 0.00 0.00 44 1014.1
20260501180351 60 286 2.0 5.0 0.00 0.00 0.00 43 1014.3
20260501175848 60 54 2.0 8.0 0.00 0.00 0.00 43 1014.3
20260501175344 60 271 3.0 5.0 0.00 0.00 0.00 44 1014.4
20260501174841 59 308 3.0 3.0 0.00 0.00 0.00 45 1014.3
20260501174339 60 268 3.0 5.0 0.00 0.00 0.00 45 1014.2
20260501173837 60 47 4.0 5.0 0.00 0.00 0.00 44 1014.5
20260501173334 59 56 1.0 3.0 0.00 0.00 0.00 44 1014.5
20260501172829 59 58 5.0 8.0 0.00 0.00 0.00 45 1014.6
20260501172325 60 53 1.0 5.0 0.00 0.00 0.00 45 1014.6
20260501171821 60 291 3.0 5.0 0.00 0.00 0.00 44 1014.5
20260501171318 59 359 2.0 5.0 0.00 0.00 0.00 46 1014.6
20260501170814 59 11 3.0 5.0 0.00 0.00 0.00 45 1014.7
20260501170311 58 50 3.0 9.0 0.00 0.00 0.00 44 1014.8
20260501165809 59 69 1.0 3.0 0.00 0.00 0.00 45 1014.8
20260501165307 58 47 2.0 7.0 0.00 0.00 0.00 44 1014.9
20260501164804 59 46 0.0 3.0 0.00 0.00 0.00 43 1014.9
20260501164301 59 30 3.0 5.0 0.00 0.00 0.00 44 1014.7
20260501163756 57 21 2.0 3.0 0.00 0.00 0.00 44 1014.7
20260501163254 59 90 1.0 3.0 0.00 0.00 0.00 45 1015.1
20260501162750 58 50 3.0 5.0 0.00 0.00 0.00 43 1015.0
20260501162247 58 130 2.0 5.0 0.00 0.00 0.00 45 1014.9
20260501161744 58 0 4.0 8.0 0.00 0.00 0.00 45 1014.9
20260501161242 58 51 2.0 3.0 0.00 0.00 0.00 44 1015.0
20260501160737 58 78 0.0 6.0 0.00 0.00 0.00 46 1015.1
20260501160235 57 284 5.0 7.0 0.00 0.00 0.00 44 1015.1
20260501155732 57 336 2.0 9.0 0.00 0.00 0.00 46 1015.4
20260501155229 58 0 2.0 6.0 0.00 0.00 0.00 46 1015.7
20260501154725 56 142 0.0 3.0 0.00 0.00 0.00 48 1015.4